Regional Weather Roundup
Issued by NWS

Home | Current Version | Previous Version | Graphics & Text | Print | Product List | Glossary On
Versions: 1 2 3 4 5 6 7 8 9 10 11 12 13 14 15 16 17 18 19 20 21 22 23 24 25 26 27
000
ASUS45 KBOI 181910
RWRID
WEATHER ROUNDUP FOR IDAHO
NATIONAL WEATHER SERVICE BOISE ID
100 PM MDT FRI APR 18 2014

NOTE: "FAIR" INDICATES FEW OR NO CLOUDS BELOW 12000 FEET
WITH NO SIGNIFICANT WEATHER AND/OR OBSTRUCTIONS TO VISIBILITY

IDZ012-014-182000-
SOUTHWEST IDAHO


CITY           SKY/WX    TMP DP  RH WIND       PRES   REMARKS
BOISE          MOSUNNY   56  34  43 NW10      30.03S
CALDWELL       SUNNY     57  32  38 W9        30.05S
MOUNTAIN HOME  SUNNY     59  29  32 NW12      30.01F
$$

IDZ016-017-182000-
SOUTHCENTRAL IDAHO


CITY           SKY/WX    TMP DP  RH WIND       PRES   REMARKS
BURLEY         PTSUNNY   52  39  61 W14G22    29.99S
JEROME         MOSUNNY   54  36  50 W21G29    30.01S
TWIN FALLS     MOSUNNY   55  39  54 W21G26    30.01S
$$

IDZ019>023-182000-
SOUTHEAST IDAHO


CITY           SKY/WX    TMP DP  RH WIND       PRES   REMARKS
IDAHO FALLS    CLOUDY    50  38  63 S29G38    29.93R
POCATELLO      PTSUNNY   51  38  60 SW25G33   29.99S
REXBURG        CLOUDY    47  36  65 S23G35    29.91S
$$

IDZ006-010-011-018-031-032-182000-
CENTRAL IDAHO MOUNTAINS


CITY           SKY/WX    TMP DP  RH WIND       PRES   REMARKS
MCCALL         MOSUNNY   45  19  35 SW14G23   29.98R
HAILEY         MOSUNNY   55  16  21 SW15G29   29.93F
STANLEY          N/A     41  21  44 N8        29.97R
SALMON         PTSUNNY   55  25  30 SW21G28   29.82S
CHALLIS        SUNNY     54  13  19 W13G29    29.88R
$$

IDZ002-004-006-007-026-182000-
NORTHERN IDAHO


CITY           SKY/WX    TMP DP  RH WIND       PRES   REMARKS
LEWISTON       PTSUNNY   56  19  23 MISG      29.99F
LOWELL           N/A     56  28  34 VRB3      29.99R
COEUR D`ALENE  CLOUDY    45  30  57 SW21G26   29.95R
MULLAN PASS    LGT SNOW  25  25 100 SW13G25   29.85R FOG     WCI  13
$$



USA.gov is the U.S. government's official web portal to all federal, state and local government web resources and services.